Temp_Advection
nan nan nan nan nan nan nan nan nan nan nan nan nan nan nan nan nan nan nan nan nan nan nan nan nan nan nan nan nan nan nan nan nan nan nan nan nan nan nan nan nan nan nan nan
nan -0 -1 -0 -0 -0 0 0 -1 -1 -0 -0 -0 -0 -0 0 -0 -1 -0 -0 -2 -2 -2 -1 -1 -1 -0 -0 -0 1 0 -0 0 1 -0 1 1 0 0 1 1 1 1 nan
nan -1 -0 -0 -0 -0 0 -0 -0 -0 -0 0 0 -1 -0 -0 -1 -1 -0 0 -2 -4 -5 -2 -1 -1 0 0 -0 1 -0 0 1 0 2 1 -0 -0 0 0 0 1 1 nan
nan -1 0 0 -0 -0 -0 -0 0 0 0 -0 -0 -0 -0 -0 -1 -1 1 -2 -2 -1 -4 -3 -0 -1 -1 -1 0 1 -0 1 1 1 1 -0 -0 0 -0 0 1 1 1 nan
nan -0 0 -0 -0 -0 -0 -0 0 0 0 -0 0 -0 -0 -0 -1 -2 -2 -1 -1 -0 -1 -4 -3 -2 -1 -1 1 1 1 1 2 1 2 1 1 1 1 2 1 1 1 nan
nan -0 0 -0 -0 0 0 -0 -0 0 0 -0 -0 -0 -0 -0 -0 -0 -0 -0 -1 -2 -1 -1 -2 -0 -0 1 2 1 2 2 1 1 1 1 2 1 1 1 1 0 1 nan
nan -0 -0 0 0 -0 0 -1 -0 -0 -0 -1 -0 0 0 0 -0 -0 -0 0 -0 -1 -2 -1 -2 -1 -0 1 0 -1 -1 -1 -1 1 2 3 1 0 1 1 0 0 0 nan
nan -0 -0 -0 0 0 0 -0 -0 -0 -0 -1 -0 0 -0 0 0 0 0 -0 -1 -1 -2 -1 -0 0 0 0 -0 -1 -1 -1 1 2 3 2 0 1 1 1 0 0 0 nan
nan -0 -1 -0 -0 -0 0 -0 -0 0 0 -0 -0 -0 -0 0 0 -0 0 -1 -1 -1 -1 -1 0 0 0 1 1 2 1 1 1 1 1 0 0 0 1 0 0 0 0 nan
nan -0 -0 -0 -0 -0 -0 -0 0 -0 -0 -0 -0 0 0 -0 -0 0 -0 -1 -1 -1 -1 -0 -0 -0 -0 0 1 1 1 0 1 1 1 1 0 0 0 0 0 0 0 nan
nan 0 -0 -0 -0 -0 -0 -0 -0 0 0 0 -0 -0 -0 -0 -0 0 -1 -1 -1 -1 -1 -1 -0 -0 -0 0 1 1 0 1 2 1 1 1 0 1 0 0 0 0 0 nan
nan 0 -0 -0 -1 -0 0 0 -0 -0 -0 -0 -0 -0 -0 0 -0 -1 -1 -1 -1 -1 -0 -0 -0 -0 -0 0 2 0 0 0 1 0 1 0 0 1 0 0 0 0 0 nan
nan -0 -0 -1 -0 -0 -0 -0 0 0 0 -0 -0 -0 0 -0 -1 -1 -1 -1 -0 -0 -0 -0 -1 -1 -1 -1 -0 0 1 1 1 0 1 1 1 0 0 0 0 0 0 nan
nan 0 -0 0 -0 -0 -0 -1 -0 0 0 -0 -0 -1 -0 -0 -1 -1 -1 -0 -0 -0 -1 -1 -1 -1 -1 -1 -0 0 0 1 0 1 1 1 0 0 1 0 0 0 0 nan
nan 0 0 -0 -0 -0 -0 -0 -1 -0 0 -0 -0 0 -1 -0 -1 -1 -1 -1 -1 -1 -1 -1 -0 -0 -0 -0 -1 0 1 1 1 1 1 1 1 0 0 0 0 0 0 nan
nan 0 -0 -1 -0 -0 -0 -1 -1 -1 -1 0 0 1 -1 -1 -1 -1 -1 -1 -1 -1 -0 -0 0 0 -0 -0 -0 -0 0 1 2 2 1 1 1 0 0 0 0 0 0 nan
nan 0 0 -1 -0 -0 -0 -0 -1 -0 -0 0 1 -0 -0 -0 -1 -1 -1 -1 -1 -0 -0 -0 -0 0 -0 0 0 -0 -0 0 1 1 2 2 2 1 1 1 1 0 0 nan
nan -0 -0 -0 -0 -0 0 -0 -0 -1 -1 -0 -0 -0 -1 -1 -1 -1 -1 -0 -0 -0 -0 -0 0 0 0 0 0 0 0 -0 -0 -0 1 2 3 3 3 2 2 2 1 nan
nan -0 0 -0 -0 -1 -0 -1 -0 -0 -0 -0 -0 -0 -1 -1 -1 -1 -0 -0 -0 -0 -0 -0 0 0 0 -0 0 0 0 0 0 -0 -0 -0 -0 1 2 3 3 3 3 nan
nan 0 -0 -0 0 0 -0 -1 -1 -0 -0 -0 -0 -0 0 0 -0 -0 -0 -0 0 -0 -0 -0 -0 0 -0 -0 0 -0 -0 0 0 0 0 0 0 0 -0 -0 1 1 2 nan
nan 0 -0 -0 -0 0 -1 -0 -1 0 -0 -1 -1 -1 -0 -0 -0 -0 -0 -0 -0 -0 -0 -0 -0 -0 -0 0 0 -0 -0 -0 0 0 1 1 0 0 0 -0 -0 0 0 nan
nan 0 0 0 0 0 -1 -0 -0 -0 -1 -0 -1 -0 -0 0 0 0 -0 -0 -0 -0 -0 -0 -0 -0 0 0 -0 -0 -0 0 0 0 0 0 0 0 0 0 -0 1 1 nan
nan -0 -0 -0 -0 -0 -0 -0 -1 -0 -0 -0 -0 -0 -0 0 0 0 -0 -0 -0 0 0 0 0 -0 -0 -0 -0 -0 -0 0 0 0 0 0 -0 -0 0 0 -0 0 1 nan
nan -0 -0 0 -0 -0 -0 -0 -0 -0 -0 -0 -0 -0 -0 -0 0 0 0 0 -0 -0 -0 0 0 -0 -0 -0 -0 -0 0 0 0 0 0 0 0 0 0 0 0 0 0 nan
nan -0 -0 -0 -0 -0 -0 -0 -0 -0 -0 -0 -0 -0 -0 -0 -0 0 -0 -0 0 0 -0 -0 -0 -0 -0 -0 -0 -0 -0 0 0 -0 0 0 0 0 0 0 0 -0 0 nan
nan nan nan nan nan nan nan nan nan nan nan nan nan nan nan nan nan nan nan nan nan nan nan nan nan nan nan nan nan nan nan nan nan nan nan nan nan nan nan nan nan nan nan nan
Wind_Speed
5 3 8 10 9 6 8 9 14 15 11 5 8 13 17 16 20 19 24 31 35 39 42 42 38 35 30 39 44 43 37 41 42 40 36 36 36 35 31 29 27 25 23 22
1 10 14 11 10 10 10 13 17 16 13 6 15 21 20 12 11 24 28 29 34 41 44 45 44 34 33 26 40 43 42 37 42 46 45 39 35 34 31 32 30 27 24 24
9 11 11 13 13 11 10 9 6 11 8 7 5 17 16 7 12 24 28 20 21 26 34 42 40 37 33 31 26 39 43 38 48 49 45 37 31 30 28 28 30 29 28 26
8 14 14 13 9 14 12 8 7 7 5 10 4 11 7 8 16 17 17 19 25 30 27 18 24 30 31 33 27 36 42 43 49 52 47 38 35 36 33 29 29 27 28 28
7 4 4 5 4 4 7 6 5 5 5 6 16 5 4 9 10 19 20 23 25 32 27 24 15 14 18 19 24 38 45 45 49 49 45 38 34 35 29 24 24 25 28 26
8 5 4 6 6 5 1 2 4 3 0 9 18 7 2 2 6 16 18 28 23 32 32 27 22 9 4 13 22 41 47 45 50 46 42 36 34 31 26 24 24 22 22 23
5 6 4 6 8 3 4 5 3 4 0 6 4 4 5 4 12 11 13 21 26 28 30 30 32 20 4 15 26 33 42 44 41 42 36 33 31 28 24 23 21 21 22 21
3 5 5 9 4 10 8 8 5 6 4 10 8 6 2 5 10 12 10 13 30 35 29 27 26 23 12 6 29 27 32 39 42 39 35 29 25 23 21 21 20 18 17 19
4 4 11 6 8 2 4 5 9 5 7 6 4 2 2 5 5 5 11 14 16 18 26 26 26 25 19 6 22 32 38 44 39 36 32 27 25 23 24 18 16 15 15 19
4 5 3 8 8 6 5 1 1 2 3 5 4 4 2 6 8 9 7 11 12 16 21 27 28 24 21 11 11 21 34 37 34 32 28 25 23 21 21 16 17 16 15 18
4 1 3 6 5 7 9 6 5 4 4 4 4 4 4 7 6 6 5 11 18 21 25 27 27 25 21 16 13 10 15 24 25 25 25 24 23 21 20 16 17 15 15 18
3 3 4 4 11 13 9 5 3 3 5 4 4 9 6 8 5 10 11 12 15 21 23 25 26 25 24 23 20 6 2 5 12 20 24 25 20 21 19 18 17 16 15 15
1 3 4 10 4 6 5 7 9 9 8 4 3 5 4 4 10 12 12 16 19 22 25 28 28 27 26 22 19 16 13 26 23 21 28 26 23 21 20 18 15 16 14 13
1 3 4 4 9 9 14 15 10 5 4 8 9 12 11 10 9 7 12 14 17 21 25 27 28 26 25 22 16 13 9 20 24 24 32 28 27 22 21 19 19 17 16 15
3 2 1 6 11 14 16 15 15 13 13 8 10 16 8 7 10 10 11 11 16 21 25 27 26 26 24 23 20 14 11 10 18 23 31 31 28 24 22 19 17 16 17 16
4 3 3 14 12 14 16 16 17 15 15 15 17 11 4 15 15 14 12 13 16 18 21 23 24 24 25 24 22 18 13 10 15 21 19 25 25 23 22 20 20 18 17 16
5 3 2 8 6 12 11 9 15 13 7 9 10 3 8 7 12 16 13 14 15 16 17 21 22 23 21 20 20 20 16 9 10 16 19 22 24 23 25 26 27 21 20 19
5 6 4 4 7 4 1 16 10 11 8 3 10 5 9 13 16 13 13 12 14 16 16 17 18 20 18 17 17 15 15 12 10 10 13 17 20 21 23 24 24 24 23 23
14 6 3 2 3 11 8 7 5 2 6 7 8 3 11 16 13 15 11 11 11 12 14 17 16 17 17 17 16 17 17 16 14 15 14 12 8 11 17 22 22 22 24 23
5 10 6 2 3 3 3 12 14 3 3 7 5 4 0 13 1 2 7 9 11 12 12 14 17 18 17 17 14 16 20 21 22 20 18 17 15 13 14 12 14 17 18 21
3 4 7 5 4 3 12 20 17 3 3 8 10 14 10 5 7 9 9 13 13 13 13 13 16 18 19 18 14 15 17 19 17 16 16 17 19 18 19 18 15 14 15 15
2 3 3 4 1 2 24 7 6 4 11 11 15 13 17 18 16 15 14 13 12 13 14 14 15 16 16 15 16 17 17 13 12 11 12 15 15 15 15 18 18 17 17 14
4 5 2 5 3 5 11 11 12 12 13 12 14 10 13 17 16 15 16 14 14 11 13 12 14 14 15 17 18 14 13 11 10 10 14 14 13 14 13 15 17 15 16 19
7 12 2 2 4 9 15 13 14 13 14 14 13 14 15 18 14 14 13 12 11 11 11 10 11 14 15 15 16 19 17 10 8 9 12 13 13 13 13 14 15 15 18 19
4 9 5 3 6 8 13 13 10 12 14 15 15 15 14 13 12 11 12 11 10 9 9 7 9 12 13 11 11 12 12 14 16 14 13 13 13 14 15 15 15 15 16 14
6 3 3 1 7 7 6 6 10 12 13 12 14 14 12 11 12 9 11 10 10 11 10 10 10 10 11 10 9 10 9 9 9 13 15 16 14 14 14 13 15 15 15 14
Wind_Direction
190 146 223 227 211 221 237 273 273 275 274 253 257 273 284 284 287 290 292 293 291 286 288 284 282 277 273 251 245 239 225 218 220 222 213 219 212 212 215 214 222 225 231 229
39 223 229 230 232 226 235 253 268 281 270 256 293 284 282 271 260 270 276 283 284 282 282 280 276 268 264 261 248 235 224 220 216 218 220 218 211 212 218 216 216 222 223 224
211 238 230 222 245 250 243 233 236 273 292 269 279 285 286 278 283 283 283 295 337 337 292 280 263 260 257 254 248 237 222 216 215 217 220 209 205 211 210 206 209 216 221 223
235 239 238 245 231 234 252 253 287 280 309 292 122 289 302 287 296 295 290 18 8 3 2 286 256 257 252 255 257 229 219 215 217 216 217 209 213 209 214 212 209 213 215 221
240 291 282 277 231 213 245 211 258 289 270 320 284 248 303 347 3 8 3 360 352 9 355 358 335 285 270 266 262 223 212 211 213 211 214 209 211 214 215 209 207 215 221 220
238 237 217 241 271 239 296 22 338 279 216 277 279 207 354 45 357 4 346 343 348 6 351 356 358 9 247 234 230 212 208 210 208 208 208 213 213 206 202 202 206 211 212 214
303 270 261 241 265 251 181 75 325 320 340 237 317 331 266 318 323 332 334 330 346 360 353 356 0 17 56 195 200 213 210 207 204 208 213 212 209 205 205 207 211 209 209 214
280 327 18 353 253 213 187 161 169 243 241 287 311 264 1 341 319 306 309 356 357 342 356 0 355 24 30 190 197 192 221 210 206 206 207 201 199 202 201 206 207 211 206 218
0 262 324 42 340 211 212 152 214 253 269 286 246 106 183 338 323 25 342 22 12 339 343 352 11 26 34 99 189 202 202 218 217 208 201 192 193 194 194 191 199 197 214 230
352 297 339 311 327 23 354 50 290 357 279 250 258 269 236 322 324 348 358 8 6 356 359 7 17 24 33 48 124 191 207 214 219 220 209 195 188 186 189 191 198 198 222 227
2 170 305 9 15 358 345 336 333 281 174 245 288 256 214 240 240 287 48 22 11 8 6 10 18 24 30 43 89 123 198 210 216 223 215 184 185 188 187 201 192 207 221 221
346 273 287 271 288 277 277 346 32 278 327 298 260 269 198 237 350 76 40 24 17 22 16 19 20 23 30 41 59 115 118 158 206 218 210 180 184 184 185 183 198 203 216 213
350 349 334 324 338 18 62 358 341 306 252 225 259 287 216 99 80 63 42 17 18 18 21 24 26 26 26 33 47 77 130 171 196 228 192 173 174 183 188 191 197 195 206 214
137 194 193 244 278 290 298 303 300 299 287 319 286 301 318 130 109 71 59 27 18 17 23 26 26 28 29 28 37 62 87 145 170 172 173 170 172 179 187 185 190 201 206 209
87 242 180 282 280 282 276 281 276 260 265 258 302 305 1 109 94 71 53 39 24 17 19 22 24 28 31 33 31 48 79 126 149 163 165 168 175 180 181 182 193 201 209 212
359 213 348 297 290 273 270 281 258 259 262 265 279 261 57 50 62 54 36 38 36 22 16 18 23 28 30 33 35 27 55 100 139 145 153 154 165 170 180 188 194 199 205 209
184 177 123 270 292 311 279 246 229 242 287 274 246 121 156 104 63 28 24 35 37 31 21 21 25 30 33 38 40 40 30 48 114 122 132 149 160 176 185 189 190 197 203 207
191 162 180 286 311 255 31 26 47 57 36 13 79 89 95 96 85 57 35 33 38 36 33 30 31 36 39 47 58 58 54 42 60 73 115 134 151 165 172 176 190 197 200 197
203 169 228 226 227 297 305 36 25 317 58 15 56 63 119 127 98 53 31 39 42 44 42 39 36 43 46 48 55 74 76 72 70 66 63 69 81 121 139 151 159 157 165 168
173 191 173 192 271 272 337 334 335 190 111 12 50 2 253 169 129 46 37 54 52 51 50 45 42 47 51 51 55 65 75 84 82 80 82 85 82 94 87 91 126 141 153 149
80 126 206 215 237 281 355 329 321 157 80 58 68 42 67 82 85 121 89 74 66 65 60 57 49 49 51 53 62 64 67 66 75 91 94 96 98 96 96 95 96 100 113 124
43 271 186 207 177 271 360 357 41 42 78 81 78 85 93 99 105 106 105 88 76 74 77 76 73 63 57 53 57 61 60 64 72 82 93 89 95 95 102 106 108 112 113 114
40 350 25 28 72 38 34 45 50 65 83 90 98 104 113 110 103 102 96 93 86 79 71 70 70 65 59 57 53 54 49 56 73 90 92 92 89 92 98 103 110 116 112 114
357 10 40 145 50 52 45 55 55 66 82 91 99 109 111 111 110 101 95 89 83 76 73 72 74 72 66 58 54 50 49 58 72 86 92 100 101 104 102 102 107 111 111 111
339 322 345 87 135 116 50 49 66 75 85 91 92 92 98 103 98 98 93 84 80 75 72 76 80 78 73 66 65 64 53 51 70 84 91 96 103 106 108 108 108 112 108 112
347 349 347 18 337 101 67 59 76 84 74 77 90 96 98 97 94 96 93 86 79 76 77 82 84 83 79 74 71 67 59 50 64 79 81 85 89 92 94 102 112 112 114 120
Height
1457 1466 1468 1462 1463 1461 1462 1463 1463 1450 1445 1447 1444 1440 1427 1426 1422 1417 1413 1409 1405 1401 1399 1399 1398 1398 1398 1399 1402 1405 1411 1418 1422 1429 1433 1438 1438 1442 1444 1449 1453 1456 1458 1460
1461 1465 1453 1454 1458 1458 1458 1462 1458 1444 1441 1442 1436 1428 1421 1420 1415 1411 1406 1403 1399 1395 1391 1389 1389 1390 1391 1391 1393 1397 1402 1408 1413 1420 1425 1426 1430 1436 1440 1444 1449 1452 1454 1457
1458 1450 1446 1452 1451 1452 1453 1455 1452 1446 1438 1435 1437 1429 1419 1414 1411 1407 1404 1404 1399 1392 1383 1377 1379 1381 1383 1385 1386 1389 1393 1400 1404 1410 1417 1421 1428 1432 1435 1439 1443 1446 1450 1453
1451 1443 1444 1444 1445 1443 1448 1441 1440 1443 1447 1446 1431 1441 1420 1413 1407 1403 1400 1400 1395 1386 1378 1374 1375 1372 1373 1377 1379 1381 1386 1391 1395 1402 1412 1414 1417 1422 1428 1433 1438 1443 1446 1449
1443 1439 1439 1440 1437 1434 1440 1437 1438 1439 1444 1444 1424 1442 1412 1413 1416 1411 1410 1406 1399 1386 1385 1374 1373 1369 1369 1371 1373 1374 1378 1382 1387 1397 1406 1410 1413 1418 1424 1431 1436 1439 1443 1444
1436 1433 1434 1432 1430 1431 1430 1433 1437 1437 1443 1448 1427 1434 1420 1420 1422 1410 1412 1410 1403 1385 1385 1378 1375 1367 1364 1367 1370 1372 1373 1377 1385 1395 1399 1404 1409 1414 1420 1426 1432 1435 1438 1440
1432 1429 1427 1428 1431 1428 1431 1443 1457 1457 1455 1447 1419 1425 1417 1421 1419 1415 1409 1412 1402 1390 1388 1381 1377 1366 1365 1365 1367 1371 1374 1376 1386 1391 1397 1400 1407 1412 1416 1422 1427 1431 1434 1436
1443 1443 1429 1428 1430 1427 1429 1437 1455 1451 1447 1432 1422 1427 1416 1418 1414 1412 1411 1409 1399 1387 1390 1384 1380 1369 1365 1365 1366 1368 1379 1380 1383 1387 1393 1398 1405 1409 1413 1419 1424 1429 1431 1435
1450 1442 1431 1429 1428 1424 1427 1435 1428 1439 1434 1440 1426 1419 1418 1414 1410 1406 1410 1407 1407 1405 1394 1389 1378 1369 1366 1363 1365 1370 1375 1380 1381 1383 1388 1395 1400 1404 1411 1417 1422 1427 1430 1433
1450 1452 1437 1433 1427 1421 1427 1425 1440 1451 1445 1436 1417 1410 1414 1412 1410 1405 1410 1408 1413 1409 1399 1387 1379 1373 1371 1368 1364 1368 1371 1374 1379 1384 1387 1392 1396 1401 1409 1414 1419 1424 1428 1430
1450 1451 1445 1440 1437 1444 1441 1441 1442 1437 1436 1435 1434 1426 1413 1412 1408 1410 1412 1411 1409 1404 1397 1390 1383 1378 1375 1370 1366 1367 1369 1375 1382 1388 1389 1393 1397 1402 1407 1414 1419 1422 1426 1428
1455 1454 1453 1446 1442 1439 1441 1445 1444 1444 1437 1432 1427 1414 1405 1406 1408 1411 1415 1416 1414 1408 1402 1395 1388 1382 1378 1373 1368 1366 1372 1376 1376 1387 1391 1392 1397 1403 1407 1413 1418 1421 1424 1426
1455 1461 1463 1448 1440 1442 1444 1446 1450 1451 1444 1436 1428 1418 1403 1406 1414 1414 1415 1414 1411 1408 1403 1395 1389 1385 1381 1379 1376 1375 1375 1374 1381 1386 1387 1391 1396 1403 1409 1412 1417 1420 1422 1425
1454 1460 1461 1469 1459 1454 1452 1446 1445 1449 1445 1437 1428 1420 1411 1408 1412 1415 1413 1414 1413 1409 1405 1401 1396 1392 1389 1387 1384 1381 1380 1381 1385 1377 1382 1387 1394 1402 1407 1410 1415 1418 1421 1424
1456 1462 1460 1459 1456 1451 1447 1445 1439 1438 1437 1439 1423 1422 1417 1414 1415 1418 1418 1417 1414 1411 1407 1405 1402 1397 1394 1391 1390 1387 1385 1383 1382 1383 1382 1385 1394 1400 1405 1408 1413 1417 1420 1423
1459 1462 1460 1455 1451 1446 1442 1435 1430 1426 1423 1419 1422 1415 1427 1423 1424 1424 1425 1422 1419 1417 1414 1411 1407 1401 1395 1393 1393 1392 1388 1385 1385 1384 1385 1387 1392 1397 1402 1405 1409 1412 1418 1421
1459 1465 1465 1453 1445 1443 1437 1420 1417 1415 1415 1416 1415 1417 1425 1424 1426 1431 1430 1426 1424 1422 1421 1417 1412 1407 1404 1400 1397 1394 1394 1391 1388 1387 1386 1390 1392 1396 1399 1403 1406 1409 1414 1418
1453 1457 1460 1452 1448 1450 1420 1420 1414 1421 1423 1421 1420 1422 1425 1427 1429 1435 1434 1431 1428 1426 1425 1423 1419 1414 1411 1407 1403 1401 1400 1399 1397 1394 1392 1390 1392 1394 1396 1400 1405 1407 1411 1415
1438 1446 1455 1455 1446 1428 1416 1425 1431 1432 1430 1430 1426 1428 1428 1429 1430 1436 1438 1435 1433 1430 1429 1426 1423 1419 1415 1413 1412 1407 1405 1404 1403 1402 1400 1398 1398 1398 1398 1398 1401 1405 1407 1411
1429 1437 1449 1444 1442 1444 1431 1431 1428 1429 1427 1437 1433 1434 1430 1430 1426 1441 1440 1438 1436 1433 1432 1430 1427 1423 1420 1418 1418 1416 1414 1411 1407 1408 1407 1405 1406 1407 1401 1406 1406 1407 1409 1409
1437 1441 1441 1443 1441 1433 1438 1431 1422 1414 1440 1440 1439 1434 1430 1433 1439 1443 1442 1441 1439 1438 1436 1433 1431 1428 1427 1424 1423 1423 1419 1418 1418 1415 1414 1411 1409 1407 1410 1410 1415 1414 1415 1416
1435 1432 1433 1432 1434 1434 1441 1431 1429 1440 1440 1441 1439 1442 1441 1441 1444 1444 1445 1444 1443 1441 1439 1437 1435 1435 1433 1431 1429 1428 1427 1427 1425 1423 1423 1417 1416 1414 1414 1413 1415 1421 1418 1424
1439 1443 1438 1442 1448 1452 1450 1449 1446 1444 1443 1444 1443 1445 1444 1444 1446 1447 1447 1446 1445 1444 1443 1443 1441 1441 1438 1436 1434 1433 1432 1432 1430 1430 1426 1424 1424 1423 1425 1420 1421 1429 1426 1423
1447 1447 1445 1447 1454 1453 1451 1450 1449 1449 1448 1447 1447 1448 1447 1447 1449 1449 1449 1448 1448 1448 1447 1447 1446 1444 1443 1441 1438 1437 1437 1435 1435 1434 1432 1430 1429 1429 1429 1428 1431 1433 1430 1430
1457 1453 1452 1454 1456 1456 1456 1455 1454 1453 1451 1449 1449 1448 1449 1450 1451 1451 1451 1451 1451 1450 1450 1451 1450 1447 1446 1446 1445 1444 1443 1442 1440 1438 1437 1436 1434 1433 1432 1433 1434 1434 1434 1435
1459 1459 1457 1459 1457 1457 1459 1458 1456 1455 1454 1455 1453 1453 1454 1453 1455 1456 1455 1455 1454 1453 1453 1453 1453 1451 1450 1450 1449 1448 1448 1447 1446 1444 1443 1441 1440 1439 1437 1437 1437 1436 1438 1440